Simultaneous Nadir Overpasses (SNOs) Predictions

Prediction of SNOs between AQUA and METOP-B Satellite Orbit:

Table of predicted SNOs for the next 14.0 days since TLE Epoch: 6/21/2019
Index Date (AQUA) Time (AQUA) Lat,Lon (AQUA) SZA (AQUA ) Date (METOP-B) Time (METOP-B) Lat,Lon (METOP-B) SZA (METOP-B ) Distance(km) Time Diff (sec)
1 06/22/2019 19:50:25 73.84,-123.36 50.43 06/22/2019 19:49:57 73.83,-123.42 50.43 1.94 28
2 06/22/2019 20:39:53 -73.94, 44.05 129.46 06/22/2019 20:40:37 -73.93, 44.15 129.48 3.23 44
3 06/25/2019 14:35:00 -73.17, 136.86 130.24 06/25/2019 14:33:54 -73.14, 134.07 130.14 90.10 66
4 06/25/2019 15:24:40 73.85, -56.94 50.50 06/25/2019 15:24:19 73.86, -56.93 50.52 1.81 21
5 06/25/2019 16:14:08 -73.94, 110.49 129.40 06/25/2019 16:15:00 -73.91, 110.51 129.44 3.55 52
6 06/28/2019 10:09:20 -73.48,-157.36 129.79 06/28/2019 10:08:10 -73.42,-158.90 129.78 49.47 70
7 06/28/2019 10:58:54 73.86, 9.47 50.62 06/28/2019 10:58:41 73.84, 9.42 50.61 2.27 13
8 06/28/2019 11:48:22 -73.95, 176.91 129.29 06/28/2019 11:49:21 -73.94, 176.99 129.30 2.45 59
9 07/01/2019 05:43:40 -73.75, -91.50 129.34 07/01/2019 05:42:27 -73.69, -91.86 129.37 12.98 73
10 07/01/2019 06:33:09 73.87, 75.88 50.80 07/01/2019 06:33:03 73.87, 75.90 50.80 0.79 6
11 07/01/2019 07:22:36 -73.90,-116.55 129.17 07/01/2019 07:23:44 -73.92,-116.66 129.16 3.57 68
12 07/04/2019 01:17:56 -73.82, -25.20 129.05 07/04/2019 01:16:47 -73.82, -25.15 129.04 1.58 69
13 07/04/2019 02:07:24 73.89, 142.27 51.03 07/04/2019 02:07:25 73.90, 142.37 51.04 3.11 1




NCC Satellite Simultaneous Nadir Overpasses (SNOs) Prediction Service
